Powrót do katalogu

STARLINK-5167

AktywnyŁącznośćVLEO
NORAD 54058·PAYLOAD·🇺🇸 United States

Wystrzelony Oct 20, 2022 z Cape Canaveral Space Force Station

Loading…

Następne Przeloty (najbliższe 24 godziny)

TLE

ŚwieżeSource: CelesTrak SupGP

Epoka: Sep 14, 2026, 20:43 UTC

1 54058C 22136H   26257.86368056  .00014879  00000+0  42557-3 0  2571
2 54058  53.1583 203.9776 0001447  94.8137 111.1839 15.35400738    12

Śledź STARLINK-5167 w czasie rzeczywistym z AllMySat

Download on the App Store